Location: Unspecified
(35.6961°N, 0.0000°E)
Time: 04:11:02
(UTC+00:00)

Explorer 11/Cluster Stage 4 - Pass Details

Date: 22 May 2019
Orbit: 467 x 1260 km, 28.8° (Epoch: 17 June)

Event Time Altitude Azimuth Distance (km) Brightness Sun altitude
Rises 03:46:34 0° 234° (SW) 3,078 - -11.9°
Reaches altitude 10° 03:49:35 10° 220° (SW) 2,016 - -11.4°
Exits shadow 03:50:29 14° 213° (SSW) 1,736 7.8 -11.3°
Maximum altitude 03:53:09 22° 169° (S) 1,249 7.4 -10.8°
Drops below altitude 10° 03:56:18 10° 117° (ESE) 1,748 8.8 -10.3°
Sets 03:58:43 0° 101° (E) 2,563 10.0 -9.9°
